Total_Precipitation_Accumulation
1.74 2.26 2.06 1.38 1.13 0.97 0.91 0.86 0.70 0.30 0.16 0.20 0.07 0.03 0.02 0.03 0.10 0.09 0.10 0.13 0.08 0.13 0.10 0.04 0.01 0.01 0.04 0.02 0.02 0.04 0.09 0.14 0.29 0.50 0.68 0.73 0.80 1.00 1.22 1.32 1.55 1.75 1.43 1.07
1.65 1.75 0.85 1.00 1.46 1.73 1.53 1.32 1.01 0.63 0.37 0.52 0.32 0.08 0.02 0.01 0.04 0.05 0.08 0.17 0.24 0.32 0.15 0.09 0.04 0.02 0.03 0.01 0.01 0.02 0.07 0.10 0.24 0.33 0.46 0.62 0.81 1.01 1.07 1.31 1.48 1.64 1.56 1.54
1.12 0.76 0.73 1.25 1.64 1.82 1.63 1.40 0.84 0.89 0.70 0.90 0.68 0.56 0.15 0.05 0.03 0.07 0.15 0.26 0.39 0.42 0.37 0.17 0.17 0.14 0.11 0.07 0.05 0.06 0.09 0.12 0.15 0.30 0.60 0.81 0.86 1.12 1.52 1.71 1.51 1.42 1.56 1.55
0.87 0.43 0.65 1.34 1.65 1.64 1.38 0.73 0.81 0.77 1.04 1.43 0.97 1.50 0.43 0.12 0.07 0.03 0.06 0.16 0.25 0.31 0.33 0.23 0.18 0.25 0.23 0.16 0.12 0.11 0.12 0.14 0.16 0.24 0.38 0.92 0.97 0.70 0.68 1.01 1.46 1.76 1.97 2.04
0.58 0.24 0.51 1.12 1.11 1.45 1.62 0.82 1.06 1.28 1.33 1.29 0.97 1.25 0.38 0.16 0.21 0.06 0.02 0.07 0.13 0.22 0.34 0.41 0.27 0.16 0.16 0.22 0.20 0.20 0.15 0.17 0.15 0.16 0.23 0.35 0.66 1.04 0.87 0.82 1.25 1.69 2.15 2.33
0.21 0.19 0.39 0.58 0.73 1.21 1.44 1.44 1.65 2.02 2.32 2.63 0.94 0.71 0.38 0.21 0.24 0.08 0.05 0.02 0.09 0.12 0.17 0.25 0.31 0.23 0.16 0.19 0.20 0.26 0.26 0.20 0.17 0.16 0.25 0.33 0.28 0.45 1.24 1.67 1.69 1.97 2.35 2.80
0.44 0.49 0.31 0.47 0.88 1.48 1.89 2.15 2.97 3.63 3.83 2.31 0.31 0.48 0.36 0.02 0.05 0.12 0.09 0.06 0.06 0.09 0.14 0.18 0.23 0.28 0.20 0.17 0.24 0.31 0.43 0.60 0.55 0.53 0.76 0.91 1.14 1.55 1.82 2.14 2.46 2.39 2.16 2.11
0.52 0.70 0.56 0.71 0.60 0.99 1.33 1.80 2.10 1.83 1.20 0.62 0.33 0.69 0.19 0.00 0.00 0.02 0.08 0.15 0.15 0.14 0.15 0.21 0.27 0.28 0.31 0.23 0.26 0.37 0.52 0.75 1.11 1.28 1.52 1.84 2.14 2.16 2.09 1.84 1.54 1.52 1.64 1.62
0.42 0.31 0.23 0.37 0.68 0.77 1.12 1.70 1.13 1.42 0.62 0.69 0.67 0.49 0.09 0.00 0.00 0.01 0.04 0.12 0.15 0.19 0.22 0.27 0.34 0.41 0.43 0.49 0.59 0.62 0.68 0.89 1.15 1.50 1.80 1.59 1.45 1.42 1.31 1.28 1.27 1.12 1.09 1.40
0.39 0.47 0.17 0.27 0.71 1.18 1.00 0.81 1.43 2.26 1.79 0.92 0.53 0.29 0.14 0.08 0.03 0.13 0.08 0.04 0.08 0.16 0.29 0.46 0.58 0.68 0.80 0.78 0.87 1.11 1.28 1.30 1.16 1.14 1.25 1.49 1.50 1.31 1.19 1.12 1.17 1.33 1.29 1.29
0.60 0.76 0.36 0.53 0.62 0.76 1.30 1.36 1.37 1.31 1.01 1.35 0.97 0.47 0.20 0.21 0.30 0.40 0.19 0.10 0.13 0.23 0.37 0.49 0.63 0.72 0.78 0.95 1.01 1.09 1.16 1.31 1.39 1.26 1.20 1.34 1.53 1.70 1.64 1.53 1.33 1.27 1.57 1.85
0.65 1.38 0.95 0.57 0.28 0.20 0.56 0.82 0.94 1.54 1.01 0.69 1.00 0.69 0.27 0.21 0.29 0.26 0.27 0.28 0.28 0.35 0.44 0.55 0.62 0.74 0.91 1.14 1.35 1.32 1.35 1.44 1.55 1.64 1.65 1.64 1.76 1.76 1.93 1.90 1.84 1.83 1.97 2.14
1.28 2.17 2.23 1.66 0.97 0.49 0.47 0.33 0.54 1.19 1.60 1.39 1.62 0.83 0.49 0.41 0.47 0.39 0.50 0.47 0.56 0.56 0.59 0.67 0.74 0.84 1.04 1.18 1.46 1.57 1.61 1.62 1.61 1.55 1.57 1.69 1.75 1.92 1.96 2.18 2.03 2.00 2.16 2.04
1.42 2.13 1.68 1.14 0.62 0.50 0.41 0.27 0.39 1.44 2.42 1.65 1.09 0.94 0.81 0.94 1.01 0.84 0.74 0.70 0.88 1.00 0.93 0.96 0.93 0.99 1.12 1.32 1.56 1.56 1.52 1.55 1.45 1.54 1.46 1.33 1.31 1.39 1.79 2.30 2.59 2.48 2.12 1.84
1.68 2.38 1.06 0.67 0.35 0.31 0.37 0.50 0.67 0.97 1.06 1.52 0.87 1.00 1.43 1.75 2.17 1.71 1.25 1.03 1.05 1.24 1.31 1.36 1.36 1.32 1.25 1.26 1.56 1.84 1.59 1.56 1.70 1.49 1.67 1.68 1.45 1.40 1.63 2.08 2.09 2.02 1.82 1.72
1.41 1.87 0.63 0.58 0.31 0.31 0.40 0.42 0.42 0.67 0.83 0.64 0.47 0.60 0.81 1.24 1.37 1.39 1.38 1.31 1.18 1.39 1.60 1.57 1.57 1.61 1.33 1.50 1.49 1.95 1.92 1.69 1.68 1.78 1.99 1.91 1.92 1.75 1.72 2.02 1.63 1.45 1.33 1.53
2.34 2.35 2.20 1.92 0.44 0.72 1.96 0.62 0.21 0.43 0.41 0.67 0.86 1.07 1.02 1.47 1.50 1.83 1.55 1.36 1.51 1.58 1.54 1.45 1.47 1.70 1.44 1.64 1.68 1.91 1.99 1.90 1.96 1.92 2.22 2.37 2.31 1.88 1.74 1.68 1.60 1.31 1.12 1.18
3.00 2.66 2.98 2.75 1.39 3.44 1.41 0.08 0.06 0.20 0.29 0.54 0.76 0.85 0.80 1.74 1.68 1.66 1.58 1.49 1.44 1.42 1.55 1.59 1.49 1.65 1.64 1.67 1.68 1.90 2.01 2.03 2.03 1.98 2.05 1.99 1.90 1.64 1.51 1.43 1.36 1.34 1.14 1.14
1.98 2.57 3.85 4.02 2.46 1.29 0.28 0.03 0.03 0.16 0.25 0.20 0.31 0.29 0.22 0.42 0.46 0.68 1.41 1.69 1.64 1.56 1.76 1.81 1.89 1.94 1.91 1.79 1.70 1.65 1.77 2.04 1.87 1.90 1.86 1.77 1.51 1.59 1.45 1.32 1.34 1.07 0.79 0.63
1.52 2.34 3.79 4.27 3.22 1.74 0.25 0.02 0.01 0.09 0.49 0.33 0.45 0.32 0.22 0.16 0.30 0.74 1.22 1.29 1.31 1.40 1.61 1.78 1.80 1.75 1.46 1.51 1.15 0.98 1.24 1.21 1.37 1.42 1.44 1.49 1.36 1.25 1.09 0.97 1.01 1.04 0.79 0.70
2.24 3.59 5.00 3.79 3.48 1.80 0.43 0.16 0.07 0.56 0.79 0.37 0.33 0.24 0.16 0.21 0.77 0.97 0.95 0.89 1.04 1.15 1.34 1.37 1.20 1.09 1.26 1.48 0.83 0.81 0.75 0.80 0.94 0.85 0.87 0.94 0.92 0.80 0.70 0.56 0.54 0.50 0.54 0.61
0.85 2.03 2.78 2.65 3.09 2.02 0.24 0.14 0.24 0.33 0.29 0.33 0.16 0.07 0.09 0.10 0.17 0.38 0.42 0.48 0.55 0.65 0.86 0.82 0.52 0.70 1.10 1.12 0.43 0.50 0.46 0.69 0.57 0.43 0.41 0.43 0.42 0.42 0.42 0.27 0.28 0.29 0.31 0.32
0.16 0.34 0.56 0.75 0.82 0.22 0.13 0.18 0.15 0.17 0.23 0.14 0.08 0.04 0.03 0.03 0.03 0.06 0.12 0.13 0.16 0.22 0.28 0.38 0.20 0.18 0.28 0.31 0.14 0.15 0.40 0.32 0.27 0.20 0.22 0.24 0.22 0.26 0.27 0.18 0.17 0.17 0.17 0.19
0.07 0.05 0.14 0.17 0.12 0.05 0.06 0.08 0.07 0.10 0.10 0.08 0.06 0.05 0.04 0.03 0.02 0.01 0.03 0.04 0.03 0.06 0.09 0.15 0.11 0.05 0.04 0.04 0.06 0.12 0.16 0.13 0.13 0.16 0.14 0.11 0.11 0.14 0.13 0.13 0.14 0.18 0.23 0.28
0.17 0.20 0.31 0.26 0.08 0.09 0.12 0.08 0.05 0.04 0.03 0.02 0.01 0.01 0.01 0.01 0.01 0.01 0.01 0.02 0.02 0.02 0.04 0.07 0.08 0.06 0.04 0.03 0.04 0.06 0.08 0.11 0.18 0.17 0.10 0.07 0.10 0.14 0.15 0.19 0.21 0.25 0.28 0.39
0.17 0.17 0.20 0.18 0.06 0.12 0.10 0.07 0.08 0.07 0.05 0.03 0.03 0.01 0.00 0.00 0.00 0.00 0.00 0.00 0.01 0.02 0.02 0.03 0.04 0.04 0.04 0.04 0.04 0.04 0.07 0.13 0.20 0.19 0.15 0.14 0.13 0.12 0.13 0.16 0.23 0.26 0.30 0.33